Powrót do katalogu

ARIANE 44LP DEB

AktywnyHEO
NORAD 25844·DEBRIS·🇫🇷 France

Wystrzelony Aug 8, 1989 z Guiana Space Centre

Loading…

Następne Przeloty (najbliższe 24 godziny)

TLE

ŚwieżeSource: Space-Track

Epoka: Sep 12, 2026, 08:03 UTC

1 25844U 89062H   26255.33606272  .00002111  00000-0  28306-2 0  9993
2 25844   7.6806 312.8438 6541657 316.7215   7.4797  3.17107416286594

Śledź ARIANE 44LP DEB w czasie rzeczywistym z AllMySat

Download on the App Store